This is the latest recevied weather packets stored in our database for station/object N9WHM. If no packets are shown the sender has not sent any weather packets the latest 10 day(s).
| Time | Temp. | Humidity | Pressure | Rain* | Wind** | Luminosity | Snow |
|---|---|---|---|---|---|---|---|
| 1778277824 | 26.67° C | 22% | 1004 hPa | 0 mm | - | 464 W/m² | - |
| 1778277521 | 26.67° C | 23% | 1003.8 hPa | 0 mm | - | 490 W/m² | - |
| 1778277218 | 26.67° C | 23% | 1004.1 hPa | 0 mm | - | 487 W/m² | - |
| 1778276915 | 26.11° C | 22% | 1004 hPa | 0 mm | - | 500 W/m² | - |
| 1778276612 | 26.11° C | 23% | 1004.1 hPa | 0 mm | - | 306 W/m² | - |
| 1778276308 | 26.67° C | 23% | 1004.2 hPa | 0 mm | - | 554 W/m² | - |
| 1778276005 | 26.11° C | 23% | 1004.2 hPa | 0 mm | - | 542 W/m² | - |
| 1778275701 | 25.56° C | 25% | 1004.3 hPa | 0 mm | - | 588 W/m² | - |
| 1778275398 | 25° C | 26% | 1004.4 hPa | 0 mm | - | 151 W/m² | - |
| 1778275094 | 25° C | 25% | 1004.5 hPa | 0 mm | - | 156 W/m² | - |
| 1778274789 | 25.56° C | 25% | 1004.4 hPa | 0 mm | - | 667 W/m² | - |
| 1778274488 | 25° C | 25% | 1004.6 hPa | 0 mm | - | 201 W/m² | - |
| 1778274184 | 25° C | 25% | 1004.7 hPa | 0 mm | - | 205 W/m² | - |
| 1778273881 | 25° C | 25% | 1005 hPa | 0 mm | - | 164 W/m² | - |
| 1778273577 | 25.56° C | 25% | 1004.7 hPa | 0 mm | - | 208 W/m² | - |
| 1778273273 | 25.56° C | 25% | 1004.9 hPa | 0 mm | - | 708 W/m² | - |
| 1778272970 | 25.56° C | 25% | 1004.9 hPa | 0 mm | - | 202 W/m² | - |
| 1778272666 | 25.56° C | 25% | 1005 hPa | 0 mm | - | 594 W/m² | - |
| 1778272363 | 25.56° C | 24% | 1005.3 hPa | 0 mm | - | 157 W/m² | - |
| 1778272058 | 25.56° C | 25% | 1005.4 hPa | 0 mm | - | 769 W/m² | - |
| 1778271756 | 25° C | 26% | 1005.2 hPa | 0 mm | - | 765 W/m² | - |
| 1778271453 | 24.44° C | 26% | 1005.4 hPa | 0 mm | - | 151 W/m² | - |
| 1778271149 | 25° C | 26% | 1005.7 hPa | 0 mm | - | 160 W/m² | - |
| 1778270846 | 25.56° C | 26% | 1005.4 hPa | 0 mm | - | 222 W/m² | - |
| 1778270542 | 25° C | 25% | 1005.7 hPa | 0 mm | - | 858 W/m² | - |
* Rain latest hour (hover to see other rain measurements)
** Current wind speed in m/s (hover to see current wind gust speed)